[[{"header":{"parameterUnit":"m.s-1","parameterCategory":1,"la1":30.2991,"la2":30.254,"lo1":-89.0895,"lo2":-89.0444,"dy":0.0017,"dx":0.0017,"nx":28,"ny":28,"refTime":"2024-06-11T09:00:00:Z","depth":0,"parameterNumber":2,"parameterNumberName":"U-component_of_WINDS"},"data":[0,0,0,0,0,0,0,0,0,0,0,0,0,0,0,0,0,0,0,0,0,0,0,0,0,0,0,0,0,0,0,0,0,0,0,0,0,0,0,0,0,0,0,0,0,0,0,0,0,0,0,0,0,0,0,0,0,0,-1.425,-1.425,0,-1.4208,-1.4207,-1.4207,-1.4112,-1.411,-1.4108,-1.4106,-1.4066,-1.4067,-1.4068,0,0,0,0,0,0,0,0,0,0,0,0,0,-1.4252,-1.4252,-1.425,-1.425,-1.4249,-1.4208,-1.4207,-1.4207,-1.4112,-1.411,-1.4107,-1.4105,-1.4066,-1.4067,-1.4068,0,0,0,0,0,0,0,0,0,0,0,0,0,-1.4235,-1.4252,-1.425,-1.4197,-1.4192,-1.4208,-1.4207,-1.4207,-1.4112,-1.411,-1.4107,-1.4104,-1.4066,-1.4067,-1.4068,-1.4134,0,0,-1.4071,-1.4072,0,0,0,0,0,0,0,0,-1.4236,-1.4235,-1.4205,-1.4201,-1.4195,-1.4162,-1.4193,-1.4182,-1.4113,-1.4143,-1.4106,-1.4102,-1.4101,-1.4099,-1.4097,-1.4132,-1.413,-1.4072,-1.4072,-1.4073,-1.4073,0,0,0,0,0,0,0,-1.4237,-1.4236,-1.4234,-1.4205,-1.4199,-1.4176,-1.417,-1.4191,-1.4139,-1.414,-1.4133,-1.4129,-1.4097,-1.4097,-1.4096,-1.413,-1.4072,-1.4073,-1.4073,-1.4074,-1.4215,-1.4218,0,0,0,0,0,0,-1.4245,-1.4238,-1.4235,-1.4232,-1.4208,-1.4178,-1.4172,-1.4176,-1.4138,-1.413,-1.4131,-1.4125,-1.4096,-1.4095,-1.4094,-1.4168,-1.4073,-1.4074,-1.4074,-1.4212,-1.4216,-1.4219,0,0,0,0,0,0,-1.4246,-1.4246,-1.4237,-1.4233,-1.423,-1.4181,-1.4186,-1.4176,-1.4175,-1.4132,-1.4122,-1.414,-1.4094,-1.4092,-1.4124,-1.4166,-1.4074,-1.4075,-1.4208,-1.4213,-1.4217,-1.4318,0,0,0,0,0,0,-1.4246,-1.4247,-1.4271,-1.4234,-1.423,-1.4267,-1.4189,-1.4178,-1.4177,-1.4168,-1.4137,-1.413,-1.4091,-1.4123,-1.4125,-1.4166,-1.4076,-1.4204,-1.421,-1.4216,-1.4311,-1.4325,-1.4338,0,0,0,0,0,-1.4247,-1.4302,-1.4273,-1.4273,-1.426,-1.427,-1.4268,-1.4221,-1.4181,-1.4205,-1.4177,-1.4131,-1.416,-1.4127,-1.4129,-1.417,-1.4202,-1.4209,-1.4215,-1.4305,-1.4323,-1.4338,0,0,0,0,0,0,-1.4348,-1.4297,-1.4263,-1.4309,-1.4294,-1.4254,-1.4283,-1.4242,-1.424,-1.4231,-1.4175,-1.4169,-1.4208,-1.4192,-1.4156,-1.4231,-1.4173,-1.4181,-1.4241,-1.4257,-1.4271,-1.4274,-1.4077,0,0,0,0,0,-1.4375,-1.4386,-1.4341,-1.4386,-1.438,-1.4333,-1.4336,-1.4301,-1.4284,-1.4278,-1.4252,-1.4238,-1.4244,-1.425,-1.4253,-1.4307,-1.4299,-1.4336,-1.435,-1.4361,-1.4369,-1.4396,-1.4412,-1.4242,-1.4242,-1.4241,0,0,-1.4432,-1.4405,-1.4417,-1.4405,-1.439,-1.4404,-1.4329,-1.4347,-1.4357,-1.4281,-1.4309,-1.4289,-1.427,-1.4313,-1.4331,-1.4301,-1.4414,-1.437,-1.438,-1.4381,-1.4405,-1.4421,-1.4435,-1.4246,-1.4245,-1.4245,0,0,-1.4543,-1.4524,-1.4558,-1.4544,-1.452,-1.4488,-1.4497,-1.4462,-1.4446,-1.4472,-1.4415,-1.4426,-1.4438,-1.4426,-1.4422,-1.4526,-1.4483,-1.4529,-1.46,-1.4627,-1.4641,-1.4652,-1.4689,-1.4703,-1.4536,-1.4536,-1.4536,0,-1.4618,-1.4635,-1.4582,-1.4603,-1.4599,-1.4529,-1.4563,-1.4552,-1.4532,-1.4532,-1.4498,-1.451,-1.4492,-1.4531,-1.4556,-1.4555,-1.4563,-1.4533,-1.4643,-1.4654,-1.4664,-1.4699,-1.4713,-1.4542,-1.4541,-1.4541,-1.454,0,-1.4728,-1.4741,-1.4771,-1.4751,-1.4751,-1.4779,-1.473,-1.4737,-1.4701,-1.4673,-1.47,-1.4676,-1.4672,-1.4679,-1.4645,-1.4713,-1.4695,-1.4653,-1.4594,-1.4687,-1.4719,-1.4731,-1.455,-1.4548,-1.4546,-1.4545,0,0,-1.4904,-1.4852,-1.4864,-1.4854,-1.4822,-1.4831,-1.4855,-1.485,-1.4857,-1.4844,-1.4864,-1.4874,-1.4834,-1.4829,-1.4793,-1.4816,-1.49,-1.4771,-1.477,-1.4796,-1.4973,-1.5005,-1.5022,-1.487,-1.4873,-1.4875,-1.4974,0,-1.5008,-1.5046,-1.4997,-1.5046,-1.5057,-1.4989,-1.501,-1.4993,-1.4967,-1.4973,-1.4943,-1.4952,-1.4898,-1.4895,-1.4915,-1.4886,-1.4935,-1.4878,-1.4889,-1.489,-1.4897,-1.5038,-1.5073,-1.5168,-1.4986,-1.4989,-1.499,0,-1.5136,-1.5127,-1.5177,-1.514,-1.5143,-1.5163,-1.5153,-1.5159,-1.5138,-1.5117,-1.5111,-1.5066,-1.5088,-1.5029,-1.5058,-1.502,-1.5021,-1.5008,-1.501,-1.5011,-1.4947,-1.5043,-1.5198,-1.5212,-1.5009,-1.5007,-1.5006,0,-1.526,-1.5261,-1.529,-1.5283,-1.5241,-1.5256,-1.524,-1.5215,-1.5215,-1.5207,-1.5205,-1.5201,-1.5198,-1.5196,-1.5151,-1.5113,-1.5186,-1.5123,-1.5169,-1.5171,-1.5189,-1.5189,-1.5347,-1.5189,-1.5189,-1.5188,-1.5188,0,-1.5382,-1.5415,-1.5345,-1.5363,-1.5398,-1.5341,-1.5377,-1.5354,-1.5332,-1.5345,-1.5286,-1.5299,-1.5239,-1.5246,-1.5212,-1.5241,-1.524,-1.5224,-1.5215,-1.523,-1.5232,-1.5231,-1.5224,-1.5192,-1.5191,-1.519,-1.519,0,-1.5527,-1.5482,-1.5509,-1.5466,-1.5455,-1.5483,-1.5446,-1.5461,-1.543,-1.5446,-1.5447,-1.5398,-1.5403,-1.5358,-1.5355,-1.5331,-1.5377,-1.5356,-1.5384,-1.5377,-1.5426,-1.5422,-1.559,-1.5609,-1.5438,-1.544,-1.5441,0,-1.5609,-1.5632,-1.5591,-1.5594,-1.558,-1.5586,-1.5585,-1.5529,-1.553,-1.5506,-1.5525,-1.5524,-1.5521,-1.5532,-1.5497,-1.5494,-1.5472,-1.5531,-1.5472,-1.5486,-1.5474,-1.5473,-1.5475,-1.5544,-1.5546,-1.5548,-1.555,0,-1.5759,-1.5734,-1.5734,-1.5725,-1.5724,-1.5715,-1.5702,-1.5708,-1.5647,-1.5652,-1.5655,-1.5652,-1.5647,-1.5648,-1.5637,-1.562,-1.5576,-1.5568,-1.5578,-1.5595,-1.561,-1.5603,-1.5419,-1.5565,-1.5563,-1.5562,-1.5562,-1.5561,-1.5875,-1.5892,-1.5865,-1.5866,-1.5849,-1.5838,-1.585,-1.5818,-1.582,-1.5811,-1.5778,-1.5787,-1.5763,-1.5744,-1.5731,-1.5738,-1.5709,-1.5724,-1.5728,-1.5733,-1.5742,-1.5608,-1.5735,-1.5735,-1.5734,-1.5734,-1.5734,0,-1.6022,-1.6001,-1.6002,-1.5984,-1.5984,-1.5939,-1.5922,-1.5926,-1.5934,-1.5915,-1.5912,-1.5915,-1.5915,-1.5878,-1.5873,-1.5885,-1.5864,-1.5886,-1.5885,-1.5882,-1.5768,-1.5759,-1.5903,-1.5903,-1.5903,-1.5903,-1.5903,-1.5903,-1.6099,-1.6125,-1.6097,-1.6114,-1.6092,-1.6099,-1.6093,-1.6082,-1.6067,-1.6072,-1.6071,-1.6046,-1.602,-1.6013,-1.601,-1.5999,-1.6,-1.6029,-1.6012,-1.5906,-1.589,-1.5874,-1.5866,-1.603,-1.603,-1.6125,-1.6126,-1.6127]},{"header":{"parameterUnit":"m.s-1","parameterCategory":1,"la1":30.2991,"la2":30.254,"lo1":-89.0895,"lo2":-89.0444,"dy":0.0017,"dx":0.0017,"nx":28,"ny":28,"refTime":"2024-06-11T09:00:00:Z","depth":0,"parameterNumber":3,"parameterNumberName":"V-component_of_WINDS"},"data":[0,0,0,0,0,0,0,0,0,0,0,0,0,0,0,0,0,0,0,0,0,0,0,0,0,0,0,0,0,0,0,0,0,0,0,0,0,0,0,0,0,0,0,0,0,0,0,0,0,0,0,0,0,0,0,0,0,0,-3.8153,-3.8153,0,-3.8206,-3.8207,-3.8207,-3.8171,-3.8169,-3.8168,-3.8166,-3.8217,-3.8219,-3.8222,0,0,0,0,0,0,0,0,0,0,0,0,0,-3.8015,-3.8018,-3.8153,-3.8153,-3.8154,-3.8206,-3.8207,-3.8207,-3.8171,-3.8169,-3.8167,-3.8166,-3.8216,-3.8219,-3.8222,0,0,0,0,0,0,0,0,0,0,0,0,0,-3.8072,-3.8019,-3.8152,-3.8142,-3.8142,-3.8206,-3.8207,-3.8208,-3.8172,-3.8169,-3.8167,-3.8165,-3.8215,-3.8219,-3.8223,-3.8298,0,0,-3.8236,-3.8238,0,0,0,0,0,0,0,0,-3.8069,-3.8077,-3.8143,-3.8143,-3.8143,-3.818,-3.8177,-3.8238,-3.8172,-3.816,-3.8166,-3.8163,-3.8206,-3.8211,-3.8226,-3.8301,-3.8303,-3.8236,-3.8239,-3.8241,-3.8242,0,0,0,0,0,0,0,-3.8065,-3.8075,-3.8173,-3.8144,-3.8144,-3.8134,-3.8139,-3.8188,-3.8196,-3.8161,-3.8159,-3.8166,-3.8205,-3.8222,-3.8227,-3.8304,-3.8236,-3.824,-3.8243,-3.8244,-3.8443,-3.8445,0,0,0,0,0,0,-3.8063,-3.8072,-3.8172,-3.8175,-3.8099,-3.8138,-3.8144,-3.817,-3.8195,-3.8197,-3.8168,-3.8164,-3.8216,-3.8222,-3.8229,-3.8318,-3.8241,-3.8245,-3.8247,-3.844,-3.8443,-3.8446,0,0,0,0,0,0,-3.806,-3.8072,-3.817,-3.8123,-3.8135,-3.8143,-3.8172,-3.8172,-3.8189,-3.8201,-3.8201,-3.8184,-3.8214,-3.8222,-3.8282,-3.8319,-3.8247,-3.8251,-3.8437,-3.8441,-3.8445,-3.8498,0,0,0,0,0,0,-3.8056,-3.8071,-3.8101,-3.8124,-3.8137,-3.8223,-3.8175,-3.8175,-3.8197,-3.8192,-3.8216,-3.8217,-3.8213,-3.8275,-3.8286,-3.8324,-3.8254,-3.8433,-3.8439,-3.8443,-3.8493,-3.8504,-3.8513,0,0,0,0,0,-3.8051,-3.8113,-3.8102,-3.8115,-3.8175,-3.8225,-3.8233,-3.8228,-3.82,-3.8229,-3.8237,-3.8216,-3.8314,-3.8282,-3.8293,-3.8333,-3.8431,-3.8437,-3.8443,-3.8489,-3.8502,-3.8512,0,0,0,0,0,0,-3.8092,-3.8115,-3.8104,-3.8175,-3.8199,-3.8219,-3.8256,-3.8242,-3.8272,-3.8267,-3.8258,-3.8264,-3.8326,-3.8335,-3.8299,-3.8407,-3.8368,-3.8376,-3.8399,-3.8411,-3.8421,-3.8416,-3.8258,0,0,0,0,0,-3.8109,-3.815,-3.8168,-3.8229,-3.8241,-3.8247,-3.8269,-3.8263,-3.8287,-3.8296,-3.8307,-3.833,-3.8365,-3.8389,-3.8422,-3.8495,-3.8499,-3.8528,-3.8538,-3.8546,-3.8553,-3.8592,-3.8605,-3.8466,-3.8466,-3.8466,0,0,-3.8145,-3.8163,-3.8189,-3.8237,-3.8255,-3.8296,-3.8255,-3.83,-3.833,-3.8302,-3.8359,-3.8368,-3.8393,-3.8459,-3.8488,-3.8469,-3.8592,-3.8554,-3.856,-3.8563,-3.8599,-3.8612,-3.8624,-3.847,-3.8469,-3.8469,0,0,-3.8231,-3.825,-3.8302,-3.8321,-3.8349,-3.8353,-3.8365,-3.8388,-3.8394,-3.8451,-3.8431,-3.8466,-3.8528,-3.8546,-3.8564,-3.8658,-3.864,-3.8669,-3.872,-3.8758,-3.8768,-3.8778,-3.8811,-3.8823,-3.8677,-3.8677,-3.8677,0,-3.8271,-3.8334,-3.833,-3.8378,-3.8399,-3.8378,-3.843,-3.8449,-3.8485,-3.85,-3.8478,-3.8556,-3.8571,-3.8641,-3.8664,-3.8679,-3.8692,-3.8666,-3.8768,-3.8777,-3.8786,-3.8817,-3.883,-3.868,-3.868,-3.868,-3.8679,0,-3.8382,-3.8425,-3.8464,-3.8503,-3.8529,-3.8578,-3.8581,-3.8608,-3.8601,-3.8606,-3.8664,-3.8682,-3.8719,-3.8735,-3.8728,-3.8804,-3.8791,-3.8769,-3.8728,-3.8803,-3.8832,-3.8844,-3.8685,-3.8684,-3.8683,-3.8682,0,0,-3.8493,-3.853,-3.8544,-3.8561,-3.8591,-3.8624,-3.8673,-3.871,-3.8733,-3.8759,-3.8799,-3.8853,-3.8832,-3.8852,-3.8847,-3.888,-3.8954,-3.8854,-3.8854,-3.8871,-3.9038,-3.9054,-3.9068,-3.8943,-3.8945,-3.8947,-3.9036,0,-3.8579,-3.8666,-3.8665,-3.8744,-3.8784,-3.8765,-3.8807,-3.8829,-3.8836,-3.887,-3.8877,-3.8915,-3.8886,-3.8898,-3.893,-3.8938,-3.8987,-3.8932,-3.8978,-3.8979,-3.8971,-3.9083,-3.91,-3.9183,-3.9047,-3.9049,-3.905,0,-3.8692,-3.8724,-3.8808,-3.8833,-3.885,-3.8888,-3.8922,-3.8955,-3.898,-3.8983,-3.9006,-3.8996,-3.9044,-3.9004,-3.9069,-3.9032,-3.9051,-3.9058,-3.9061,-3.9064,-3.9018,-3.9088,-3.9209,-3.9221,-3.9069,-3.9067,-3.9066,0,-3.8763,-3.8827,-3.8886,-3.8901,-3.8932,-3.8959,-3.8973,-3.8996,-3.9019,-3.9049,-3.9063,-3.9098,-3.9117,-3.9144,-3.9143,-3.9114,-3.9209,-3.9169,-3.9211,-3.9211,-3.923,-3.9229,-3.9355,-3.9245,-3.9245,-3.9245,-3.9245,0,-3.8859,-3.8911,-3.8918,-3.8954,-3.9011,-3.901,-3.9066,-3.9077,-3.9098,-3.9134,-3.912,-3.9155,-3.9152,-3.9187,-3.9187,-3.924,-3.9249,-3.9252,-3.9251,-3.9252,-3.9252,-3.9263,-3.9257,-3.9248,-3.9247,-3.9247,-3.9246,0,-3.8947,-3.8955,-3.9017,-3.9042,-3.905,-3.9091,-3.9111,-3.9145,-3.9151,-3.9198,-3.9209,-3.9218,-3.9258,-3.9261,-3.9307,-3.9307,-3.9372,-3.9365,-3.9364,-3.9362,-3.9404,-3.9399,-3.9541,-3.9559,-3.9438,-3.9439,-3.944,0,-3.9007,-3.9047,-3.9077,-3.9102,-3.9118,-3.9157,-3.9181,-3.9181,-3.9206,-3.9239,-3.9268,-3.9307,-3.9339,-3.9403,-3.9413,-3.9448,-3.9442,-3.9489,-3.9446,-3.9447,-3.9441,-3.9438,-3.9441,-3.9496,-3.9498,-3.9499,-3.95,0,-3.9113,-3.9115,-3.9151,-3.9189,-3.9219,-3.9248,-3.9275,-3.9295,-3.9299,-3.9328,-3.937,-3.9394,-3.9442,-3.9481,-3.9515,-3.9528,-3.9514,-3.9513,-3.9525,-3.9526,-3.9523,-3.9524,-3.9385,-3.951,-3.9509,-3.9508,-3.9507,-3.9507,-3.9188,-3.9222,-3.9249,-3.929,-3.9311,-3.9337,-3.937,-3.9382,-3.9417,-3.9457,-3.9455,-3.9501,-3.9526,-3.9571,-3.9587,-3.9622,-3.9605,-3.9622,-3.9626,-3.963,-3.9634,-3.9519,-3.9628,-3.9628,-3.9628,-3.9627,-3.9627,0,-3.9291,-3.9309,-3.9346,-3.9386,-3.9418,-3.9405,-3.9435,-3.9462,-3.9503,-3.9528,-3.956,-3.9608,-3.9646,-3.966,-3.9696,-3.9722,-3.9716,-3.9731,-3.9728,-3.9731,-3.9647,-3.9633,-3.9735,-3.9735,-3.9735,-3.9735,-3.9735,-3.9735,-3.9349,-3.9406,-3.9412,-3.948,-3.9496,-3.9543,-3.9561,-3.9585,-3.9604,-3.9659,-3.9692,-3.9701,-3.9722,-3.976,-3.9794,-3.9797,-3.981,-3.9828,-3.9828,-3.9748,-3.9737,-3.9727,-3.9714,-3.9831,-3.9831,-3.991,-3.991,-3.9911]}]]